Time,TemperatureF,DewpointF,PressureIn,WindDirection,WindDirectionDegrees,WindSpeedMPH,WindSpeedGustMPH,Humidity,HourlyPrecipIn,Conditions,Clouds,dailyrainin,SoftwareType,DateUTC
2013-03-22 00:03:00,22.0,12.0,-100.00,SSE,165,1.0,6.0,66,-99.99,,,-99.99,,2013-03-22 04:03:00,
2013-03-22 00:12:00,21.0,12.0,-100.00,SSE,154,1.0,4.0,67,-99.99,,,-99.99,,2013-03-22 04:12:00,
2013-03-22 00:23:00,20.0,12.0,-100.00,SSE,164,0.0,2.0,70,-99.99,,,-99.99,,2013-03-22 04:23:00,
2013-03-22 00:32:00,20.0,12.0,-100.00,SSE,164,0.0,2.0,70,-99.99,,,-99.99,,2013-03-22 04:32:00,
2013-03-22 00:43:00,18.0,12.0,-100.00,SW,236,1.0,4.0,77,-99.99,,,-99.99,,2013-03-22 04:43:00,
2013-03-22 00:52:00,18.0,12.0,-100.00,SW,236,1.0,4.0,77,-99.99,,,-99.99,,2013-03-22 04:52:00,
2013-03-22 01:02:00,19.0,12.0,-100.00,East,84,0.0,0.0,74,-99.99,,,-99.99,,2013-03-22 05:02:00,
2013-03-22 01:12:00,19.0,12.0,-100.00,East,84,0.0,0.0,74,-99.99,,,-99.99,,2013-03-22 05:12:00,
2013-03-22 01:22:00,18.0,12.0,-100.00,SSW,193,1.0,2.0,78,-99.99,,,-99.99,,2013-03-22 05:22:00,
2013-03-22 01:32:00,18.0,12.0,-100.00,North,3,0.0,2.0,78,-99.99,,,-99.99,,2013-03-22 05:32:00,
2013-03-22 01:42:00,17.0,12.0,-100.00,NNE,16,0.0,2.0,79,-99.99,,,-99.99,,2013-03-22 05:42:00,
2013-03-22 01:52:00,17.0,12.0,-100.00,SW,226,0.0,2.0,80,-99.99,,,-99.99,,2013-03-22 05:52:00,
2013-03-22 02:02:00,17.0,12.0,-100.00,North,2,0.0,2.0,79,-99.99,,,-99.99,,2013-03-22 06:02:00,
2013-03-22 02:13:00,17.0,12.0,-100.00,SSE,153,0.0,2.0,79,-99.99,,,-99.99,,2013-03-22 06:13:00,
2013-03-22 02:22:00,17.0,12.0,-100.00,SE,134,0.0,2.0,80,-99.99,,,-99.99,,2013-03-22 06:22:00,
2013-03-22 02:32:00,17.0,12.0,-100.00,SE,134,0.0,2.0,79,-99.99,,,-99.99,,2013-03-22 06:32:00,
2013-03-22 02:42:00,17.0,12.0,-100.00,SE,134,0.0,2.0,79,-99.99,,,-99.99,,2013-03-22 06:42:00,
2013-03-22 02:52:00,17.0,12.0,-100.00,SSE,147,1.0,2.0,80,-99.99,,,-99.99,,2013-03-22 06:52:00,
2013-03-22 03:03:00,18.0,12.0,-100.00,WSW,256,1.0,2.0,78,-99.99,,,-99.99,,2013-03-22 07:03:00,
2013-03-22 03:12:00,16.0,11.0,-100.00,WNW,294,0.0,0.0,80,-99.99,,,-99.99,,2013-03-22 07:12:00,
2013-03-22 03:22:00,15.0,11.0,-100.00,ENE,74,0.0,2.0,83,-99.99,,,-99.99,,2013-03-22 07:22:00,
2013-03-22 03:32:00,15.0,11.0,-100.00,ENE,74,0.0,2.0,83,-99.99,,,-99.99,,2013-03-22 07:32:00,
2013-03-22 03:42:00,15.0,11.0,-100.00,ESE,118,0.0,2.0,84,-99.99,,,-99.99,,2013-03-22 07:42:00,
2013-03-22 03:52:00,15.0,11.0,-100.00,SE,127,0.0,2.0,85,-99.99,,,-99.99,,2013-03-22 07:52:00,
2013-03-22 04:03:00,15.0,11.0,-100.00,East,101,0.0,2.0,85,-99.99,,,-99.99,,2013-03-22 08:03:00,
2013-03-22 04:13:00,15.0,12.0,-100.00,West,272,0.0,2.0,86,-99.99,,,-99.99,,2013-03-22 08:13:00,
2013-03-22 04:22:00,15.0,12.0,-100.00,West,272,0.0,2.0,86,-99.99,,,-99.99,,2013-03-22 08:22:00,
2013-03-22 04:32:00,16.0,12.0,-100.00,ESE,111,0.0,2.0,84,-99.99,,,-99.99,,2013-03-22 08:32:00,
2013-03-22 04:42:00,15.0,11.0,-100.00,SSE,152,0.0,0.0,84,-99.99,,,-99.99,,2013-03-22 08:42:00,
2013-03-22 04:52:00,14.0,11.0,-100.00,East,89,0.0,2.0,86,-99.99,,,-99.99,,2013-03-22 08:52:00,
2013-03-22 05:03:00,14.0,11.0,-100.00,SSE,163,0.0,2.0,88,-99.99,,,-99.99,,2013-03-22 09:03:00,
2013-03-22 05:12:00,14.0,11.0,-100.00,SSE,163,0.0,2.0,88,-99.99,,,-99.99,,2013-03-22 09:12:00,
2013-03-22 05:22:00,14.0,11.0,-100.00,SSE,158,0.0,2.0,88,-99.99,,,-99.99,,2013-03-22 09:22:00,
2013-03-22 05:32:00,15.0,12.0,-100.00,ESE,109,0.0,2.0,89,-99.99,,,-99.99,,2013-03-22 09:32:00,
2013-03-22 05:42:00,14.0,11.0,-100.00,SW,236,0.0,0.0,88,-99.99,,,-99.99,,2013-03-22 09:42:00,
2013-03-22 05:53:00,14.0,11.0,-100.00,SSW,194,0.0,2.0,88,-99.99,,,-99.99,,2013-03-22 09:53:00,
2013-03-22 06:04:00,14.0,12.0,-100.00,SE,138,2.0,4.0,91,-99.99,,,-99.99,,2013-03-22 10:04:00,
2013-03-22 06:12:00,13.0,11.0,-100.00,ESE,102,0.0,2.0,90,-99.99,,,-99.99,,2013-03-22 10:12:00,
2013-03-22 06:23:00,13.0,11.0,-100.00,ESE,102,0.0,2.0,90,-99.99,,,-99.99,,2013-03-22 10:23:00,
2013-03-22 06:33:00,13.0,11.0,-100.00,ENE,78,0.0,2.0,91,-99.99,,,-99.99,,2013-03-22 10:33:00,
2013-03-22 06:42:00,11.0,9.0,-100.00,East,95,0.0,2.0,92,-99.99,,,-99.99,,2013-03-22 10:42:00,
2013-03-22 06:52:00,10.0,9.0,-100.00,NNE,33,0.0,2.0,93,-99.99,,,-99.99,,2013-03-22 10:52:00,
2013-03-22 07:03:00,11.0,10.0,-100.00,NE,51,0.0,2.0,94,-99.99,,,-99.99,,2013-03-22 11:03:00,
2013-03-22 07:12:00,11.0,10.0,-100.00,SSE,156,0.0,2.0,95,-99.99,,,-99.99,,2013-03-22 11:12:00,
2013-03-22 07:22:00,11.0,10.0,-100.00,North,10,0.0,2.0,95,-99.99,,,-99.99,,2013-03-22 11:22:00,
2013-03-22 07:33:00,12.0,11.0,-100.00,West,280,0.0,2.0,94,-99.99,,,-99.99,,2013-03-22 11:33:00,
2013-03-22 07:42:00,13.0,11.0,-100.00,NE,36,0.0,2.0,94,-99.99,,,-99.99,,2013-03-22 11:42:00,
2013-03-22 07:52:00,13.0,12.0,-100.00,SSE,152,0.0,2.0,93,-99.99,,,-99.99,,2013-03-22 11:52:00,
2013-03-22 08:02:00,13.0,11.0,-100.00,WNW,300,0.0,0.0,91,-99.99,,,-99.99,,2013-03-22 12:02:00,
2013-03-22 08:12:00,13.0,11.0,-100.00,WNW,300,0.0,0.0,91,-99.99,,,-99.99,,2013-03-22 12:12:00,
2013-03-22 08:22:00,13.0,10.0,-100.00,East,84,0.0,0.0,88,-99.99,,,-99.99,,2013-03-22 12:22:00,
2013-03-22 08:32:00,13.0,11.0,-100.00,NE,50,0.0,0.0,89,-99.99,,,-99.99,,2013-03-22 12:32:00,
2013-03-22 08:42:00,13.0,11.0,-100.00,NE,50,0.0,0.0,89,-99.99,,,-99.99,,2013-03-22 12:42:00,
2013-03-22 08:52:00,14.0,11.0,-100.00,ENE,75,0.0,2.0,86,-99.99,,,-99.99,,2013-03-22 12:52:00,
2013-03-22 09:02:00,16.0,12.0,-100.00,ESE,116,0.0,2.0,82,-99.99,,,-99.99,,2013-03-22 13:02:00,
2013-03-22 09:12:00,16.0,11.0,-100.00,East,88,1.0,2.0,77,-99.99,,,-99.99,,2013-03-22 13:12:00,
2013-03-22 09:22:00,18.0,11.0,-100.00,ENE,71,0.0,2.0,74,-99.99,,,-99.99,,2013-03-22 13:22:00,
2013-03-22 09:32:00,18.0,11.0,-100.00,ENE,71,0.0,2.0,74,-99.99,,,-99.99,,2013-03-22 13:32:00,
2013-03-22 09:42:00,19.0,12.0,-100.00,East,89,0.0,2.0,72,-99.99,,,-99.99,,2013-03-22 13:42:00,
2013-03-22 10:03:00,21.0,13.0,-100.00,ESE,115,0.0,2.0,70,-99.99,,,-99.99,,2013-03-22 14:03:00,
2013-03-22 10:12:00,23.0,14.0,-100.00,SE,145,0.0,2.0,69,-99.99,,,-99.99,,2013-03-22 14:12:00,
2013-03-22 10:22:00,24.0,15.0,-100.00,East,81,0.0,2.0,66,-99.99,,,-99.99,,2013-03-22 14:22:00,
2013-03-22 10:32:00,25.0,15.0,-100.00,ENE,68,0.0,2.0,65,-99.99,,,-99.99,,2013-03-22 14:32:00,
2013-03-22 10:43:00,24.0,15.0,-100.00,ESE,116,1.0,2.0,67,-99.99,,,-99.99,,2013-03-22 14:43:00,
2013-03-22 10:52:00,24.0,15.0,-100.00,ESE,116,1.0,2.0,67,-99.99,,,-99.99,,2013-03-22 14:52:00,
2013-03-22 11:03:00,26.0,16.0,-100.00,ESE,111,1.0,4.0,65,-99.99,,,-99.99,,2013-03-22 15:03:00,
2013-03-22 11:12:00,28.0,16.0,-100.00,NE,42,1.0,4.0,60,-99.99,,,-99.99,,2013-03-22 15:12:00,
2013-03-22 11:22:00,29.0,16.0,-100.00,East,96,0.0,2.0,58,-99.99,,,-99.99,,2013-03-22 15:22:00,
2013-03-22 11:33:00,28.0,16.0,-100.00,ENE,71,1.0,4.0,60,-99.99,,,-99.99,,2013-03-22 15:33:00,
2013-03-22 11:43:00,27.0,16.0,-100.00,South,171,1.0,2.0,62,-99.99,,,-99.99,,2013-03-22 15:43:00,
2013-03-22 11:52:00,29.0,16.0,-100.00,ESE,112,1.0,4.0,59,-99.99,,,-99.99,,2013-03-22 15:52:00,
2013-03-22 12:03:00,29.0,16.0,-100.00,SSE,164,2.0,8.0,58,-99.99,,,-99.99,,2013-03-22 16:03:00,
2013-03-22 12:13:00,27.0,17.0,-100.00,East,86,1.0,4.0,64,-99.99,,,-99.99,,2013-03-22 16:13:00,
2013-03-22 12:23:00,28.0,18.0,-100.00,NNE,16,1.0,4.0,65,-99.99,,,-99.99,,2013-03-22 16:23:00,
2013-03-22 12:32:00,28.0,17.0,-100.00,WNW,289,1.0,4.0,64,-99.99,,,-99.99,,2013-03-22 16:32:00,
2013-03-22 12:42:00,28.0,17.0,-100.00,WNW,289,1.0,4.0,64,-99.99,,,-99.99,,2013-03-22 16:42:00,
2013-03-22 12:52:00,28.0,16.0,-100.00,ENE,74,4.0,10.0,59,-99.99,,,-99.99,,2013-03-22 16:52:00,
2013-03-22 13:03:00,28.0,16.0,-100.00,SE,139,5.0,10.0,59,-99.99,,,-99.99,,2013-03-22 17:03:00,
2013-03-22 13:12:00,30.0,15.0,-100.00,SSE,166,5.0,10.0,54,-99.99,,,-99.99,,2013-03-22 17:12:00,
2013-03-22 13:23:00,29.0,15.0,-100.00,SSE,156,4.0,15.0,55,-99.99,,,-99.99,,2013-03-22 17:23:00,
2013-03-22 13:32:00,29.0,15.0,-100.00,SSE,147,5.0,11.0,54,-99.99,,,-99.99,,2013-03-22 17:32:00,
2013-03-22 13:42:00,29.0,15.0,-100.00,SE,130,4.0,10.0,55,-99.99,,,-99.99,,2013-03-22 17:42:00,
2013-03-22 13:52:00,31.0,15.0,-100.00,SW,215,4.0,10.0,51,-99.99,,,-99.99,,2013-03-22 17:52:00,
2013-03-22 14:02:00,30.0,15.0,-100.00,SE,136,6.0,11.0,52,-99.99,,,-99.99,,2013-03-22 18:02:00,
2013-03-22 14:12:00,30.0,15.0,-100.00,SE,136,6.0,11.0,52,-99.99,,,-99.99,,2013-03-22 18:12:00,
2013-03-22 14:22:00,32.0,15.0,-100.00,WSW,247,5.0,11.0,48,-99.99,,,-99.99,,2013-03-22 18:22:00,
2013-03-22 14:33:00,33.0,15.0,-100.00,NNE,25,5.0,11.0,46,-99.99,,,-99.99,,2013-03-22 18:33:00,
2013-03-22 14:42:00,33.0,15.0,-100.00,NNE,25,5.0,11.0,46,-99.99,,,-99.99,,2013-03-22 18:42:00,
2013-03-22 14:52:00,32.0,15.0,-100.00,ENE,71,4.0,8.0,49,-99.99,,,-99.99,,2013-03-22 18:52:00,
2013-03-22 15:02:00,31.0,16.0,-100.00,ESE,108,5.0,11.0,53,-99.99,,,-99.99,,2013-03-22 19:02:00,
2013-03-22 15:12:00,31.0,16.0,-100.00,SSE,159,6.0,15.0,52,-99.99,,,-99.99,,2013-03-22 19:12:00,
2013-03-22 15:22:00,31.0,16.0,-100.00,SE,146,4.0,10.0,52,-99.99,,,-99.99,,2013-03-22 19:22:00,
2013-03-22 15:32:00,31.0,15.0,-100.00,East,90,6.0,11.0,50,-99.99,,,-99.99,,2013-03-22 19:32:00,
2013-03-22 15:43:00,31.0,16.0,-100.00,East,86,5.0,10.0,54,-99.99,,,-99.99,,2013-03-22 19:43:00,
2013-03-22 15:52:00,31.0,16.0,-100.00,East,86,5.0,10.0,54,-99.99,,,-99.99,,2013-03-22 19:52:00,
2013-03-22 16:02:00,31.0,17.0,-100.00,SW,227,5.0,11.0,56,-99.99,,,-99.99,,2013-03-22 20:02:00,
2013-03-22 16:13:00,31.0,17.0,-100.00,SW,227,5.0,11.0,56,-99.99,,,-99.99,,2013-03-22 20:13:00,
2013-03-22 16:22:00,30.0,20.0,-100.00,South,184,3.0,6.0,66,-99.99,,,-99.99,,2013-03-22 20:22:00,
2013-03-22 16:32:00,30.0,19.0,-100.00,SSW,192,5.0,10.0,62,-99.99,,,-99.99,,2013-03-22 20:32:00,
2013-03-22 16:43:00,30.0,18.0,-100.00,SE,127,5.0,13.0,62,-99.99,,,-99.99,,2013-03-22 20:43:00,
2013-03-22 16:52:00,30.0,20.0,-100.00,SE,129,6.0,11.0,66,-99.99,,,-99.99,,2013-03-22 20:52:00,
2013-03-22 17:03:00,28.0,23.0,-100.00,North,0,6.0,11.0,79,-99.99,,,-99.99,,2013-03-22 21:03:00,
2013-03-22 17:12:00,28.0,23.0,-100.00,SSW,206,3.0,8.0,80,-99.99,,,-99.99,,2013-03-22 21:12:00,
2013-03-22 17:22:00,28.0,23.0,-100.00,SSW,206,3.0,8.0,80,-99.99,,,-99.99,,2013-03-22 21:22:00,
2013-03-22 17:33:00,29.0,22.0,-100.00,WNW,291,4.0,8.0,76,-99.99,,,-99.99,,2013-03-22 21:33:00,
2013-03-22 17:43:00,29.0,22.0,-100.00,WNW,291,4.0,8.0,76,-99.99,,,-99.99,,2013-03-22 21:43:00,
2013-03-22 17:53:00,29.0,21.0,-100.00,North,10,4.0,8.0,71,-99.99,,,-99.99,,2013-03-22 21:53:00,
2013-03-22 18:03:00,29.0,21.0,-100.00,North,10,4.0,8.0,71,-99.99,,,-99.99,,2013-03-22 22:03:00,
2013-03-22 18:12:00,29.0,21.0,-100.00,SW,229,4.0,8.0,71,-99.99,,,-99.99,,2013-03-22 22:12:00,
2013-03-22 18:23:00,29.0,21.0,-100.00,North,6,3.0,8.0,72,-99.99,,,-99.99,,2013-03-22 22:23:00,
2013-03-22 18:32:00,29.0,20.0,-100.00,ESE,117,4.0,8.0,70,-99.99,,,-99.99,,2013-03-22 22:32:00,
2013-03-22 18:43:00,29.0,20.0,-100.00,SE,128,5.0,11.0,69,-99.99,,,-99.99,,2013-03-22 22:43:00,
2013-03-22 18:52:00,28.0,20.0,-100.00,ESE,106,5.0,11.0,71,-99.99,,,-99.99,,2013-03-22 22:52:00,
2013-03-22 19:02:00,28.0,20.0,-100.00,WNW,288,3.0,8.0,72,-99.99,,,-99.99,,2013-03-22 23:02:00,
2013-03-22 19:12:00,28.0,21.0,-100.00,ESE,111,4.0,10.0,73,-99.99,,,-99.99,,2013-03-22 23:12:00,
2013-03-22 19:22:00,28.0,21.0,-100.00,ESE,111,4.0,10.0,73,-99.99,,,-99.99,,2013-03-22 23:22:00,
2013-03-22 19:32:00,28.0,21.0,-100.00,East,101,4.0,8.0,76,-99.99,,,-99.99,,2013-03-22 23:32:00,
2013-03-22 19:42:00,28.0,21.0,-100.00,SSE,166,4.0,8.0,75,-99.99,,,-99.99,,2013-03-22 23:42:00,
2013-03-22 19:52:00,27.0,21.0,-100.00,SE,134,4.0,10.0,77,-99.99,,,-99.99,,2013-03-22 23:52:00,
2013-03-22 20:02:00,27.0,20.0,-100.00,WSW,239,4.0,10.0,75,-99.99,,,-99.99,,2013-03-23 00:02:00,
2013-03-22 20:12:00,27.0,20.0,-100.00,South,178,5.0,10.0,76,-99.99,,,-99.99,,2013-03-23 00:12:00,
2013-03-22 20:23:00,26.0,21.0,-100.00,South,169,4.0,10.0,80,-99.99,,,-99.99,,2013-03-23 00:23:00,
2013-03-22 20:33:00,26.0,21.0,-100.00,SE,132,6.0,15.0,82,-99.99,,,-99.99,,2013-03-23 00:33:00,
2013-03-22 20:42:00,25.0,21.0,-100.00,South,190,5.0,15.0,84,-99.99,,,-99.99,,2013-03-23 00:42:00,
2013-03-22 20:52:00,25.0,21.0,-100.00,South,190,5.0,15.0,84,-99.99,,,-99.99,,2013-03-23 00:52:00,
2013-03-22 21:03:00,25.0,20.0,-100.00,WNW,285,2.0,8.0,83,-99.99,,,-99.99,,2013-03-23 01:03:00,
2013-03-22 21:12:00,25.0,19.0,-100.00,SW,214,6.0,17.0,77,-99.99,,,-99.99,,2013-03-23 01:12:00,
2013-03-22 21:22:00,24.0,17.0,-100.00,ESE,111,5.0,13.0,72,-99.99,,,-99.99,,2013-03-23 01:22:00,
2013-03-22 21:32:00,24.0,16.0,-100.00,SSE,157,6.0,17.0,72,-99.99,,,-99.99,,2013-03-23 01:32:00,
2013-03-22 21:42:00,23.0,16.0,-100.00,East,87,3.0,8.0,73,-99.99,,,-99.99,,2013-03-23 01:42:00,
2013-03-22 21:52:00,23.0,16.0,-100.00,SE,124,2.0,8.0,74,-99.99,,,-99.99,,2013-03-23 01:52:00,
2013-03-22 22:02:00,23.0,16.0,-100.00,SE,124,2.0,8.0,74,-99.99,,,-99.99,,2013-03-23 02:02:00,
2013-03-22 22:12:00,23.0,17.0,-100.00,SSE,154,4.0,11.0,76,-99.99,,,-99.99,,2013-03-23 02:12:00,
2013-03-22 22:22:00,23.0,17.0,-100.00,WSW,240,3.0,8.0,77,-99.99,,,-99.99,,2013-03-23 02:22:00,
2013-03-22 22:32:00,22.0,17.0,-100.00,ESE,115,2.0,8.0,77,-99.99,,,-99.99,,2013-03-23 02:32:00,
2013-03-22 22:42:00,22.0,17.0,-100.00,ESE,115,2.0,8.0,77,-99.99,,,-99.99,,2013-03-23 02:42:00,
2013-03-22 22:52:00,22.0,17.0,-100.00,ENE,60,1.0,6.0,78,-99.99,,,-99.99,,2013-03-23 02:52:00,
2013-03-22 23:02:00,23.0,17.0,-100.00,WSW,249,1.0,4.0,77,-99.99,,,-99.99,,2013-03-23 03:02:00,
2013-03-22 23:12:00,23.0,17.0,-100.00,SSE,161,1.0,6.0,77,-99.99,,,-99.99,,2013-03-23 03:12:00,
2013-03-22 23:23:00,23.0,17.0,-100.00,ESE,103,3.0,10.0,78,-99.99,,,-99.99,,2013-03-23 03:23:00,
2013-03-22 23:33:00,23.0,17.0,-100.00,ESE,118,2.0,8.0,78,-99.99,,,-99.99,,2013-03-23 03:33:00,
2013-03-22 23:43:00,23.0,17.0,-100.00,ESE,118,2.0,8.0,78,-99.99,,,-99.99,,2013-03-23 03:43:00,
2013-03-22 23:53:00,23.0,18.0,-100.00,South,186,2.0,6.0,78,-99.99,,,-99.99,,2013-03-23 03:53:00,